• In Spain
  • List of Countries
  • For 7 days
  • Water Temperature
  • Satellite Maps
  • Weather Map
  • Weather Widgets
  • user-avatar
    Login

    Hourly Weather Madrid

    Today, 19 January, Friday

    Time Temperature Precipitation Wind Pressure Humidity
    00:00 +6°C° 0 mm 2 mps 708 mmHg 61%
    01:00 +6°C° 0 mm 2 mps 708 mmHg 63%
    02:00 +6°C° 0 mm 2 mps 708 mmHg 65%
    03:00 +5°C° 0 mm 2 mps 708 mmHg 67%
    04:00 +5°C° 0 mm 2 mps 708 mmHg 68%
    05:00 +5°C° 0 mm 2 mps 708 mmHg 70%
    06:00 +5°C° 0 mm 2 mps 708 mmHg 71%
    07:00 +5°C° 0 mm 2 mps 708 mmHg 69%
    08:00 +6°C° 0 mm 2 mps 709 mmHg 67%
    09:00 +7°C° 0 mm 2 mps 709 mmHg 65%
    10:00 +9°C° 0 mm 2 mps 709 mmHg 60%
    11:00 +10°C° 0 mm 2 mps 709 mmHg 55%
    12:00 +13°C° 0 mm 2 mps 710 mmHg 49%
    13:00 +14°C° 0 mm 2 mps 709 mmHg 48%
    14:00 +14°C° 0 mm 2 mps 709 mmHg 46%
    15:00 +15°C° 0 mm 2 mps 709 mmHg 45%
    16:00 +13°C° 0 mm 2 mps 710 mmHg 52%
    17:00 +10°C° 0 mm 2 mps 710 mmHg 58%
    18:00 +9°C° 0 mm 2 mps 710 mmHg 64%
    19:00 +8°C° 0 mm 2 mps 711 mmHg 68%
    20:00 +7°C° 0 mm 2 mps 711 mmHg 71%
    21:00 +7°C° 0 mm 2 mps 712 mmHg 74%
    22:00 +6°C° 0 mm 2 mps 712 mmHg 76%
    23:00 +6°C° 0 mm 2 mps 712 mmHg 79%

    Tomorrow, 20 January, Saturday

    Time Temperature Precipitation Wind Pressure Humidity
    00:00 +6°C° 0 mm 1 mps 712 mmHg 81%
    01:00 +6°C° 0 mm 1 mps 712 mmHg 81%
    02:00 +6°C° 0 mm 1 mps 712 mmHg 81%
    03:00 +5°C° 0 mm 1 mps 712 mmHg 82%
    04:00 +5°C° 0 mm 1 mps 712 mmHg 81%
    05:00 +5°C° 0 mm 1 mps 712 mmHg 80%
    06:00 +5°C° 0 mm 1 mps 712 mmHg 80%
    07:00 +6°C° 0 mm 1 mps 713 mmHg 75%
    08:00 +7°C° 0 mm 1 mps 713 mmHg 71%
    09:00 +8°C° 0 mm 1 mps 713 mmHg 67%
    10:00 +8°C° 0 mm 2 mps 713 mmHg 58%
    11:00 +10°C° 0 mm 3 mps 713 mmHg 50%
    12:00 +12°C° 0 mm 4 mps 713 mmHg 41%
    13:00 +13°C° 0 mm 4 mps 713 mmHg 40%
    14:00 +14°C° 0 mm 4 mps 712 mmHg 39%
    15:00 +14°C° 0 mm 4 mps 712 mmHg 38%
    16:00 +13°C° 0 mm 4 mps 712 mmHg 46%
    17:00 +11°C° 0 mm 4 mps 713 mmHg 53%
    18:00 +10°C° 0 mm 3 mps 713 mmHg 60%
    19:00 +9°C° 0 mm 3 mps 713 mmHg 64%
    20:00 +9°C° 0 mm 3 mps 714 mmHg 67%
    21:00 +8°C° 0 mm 2 mps 714 mmHg 71%
    22:00 +8°C° 0 mm 2 mps 714 mmHg 73%
    23:00 +7°C° 0 mm 2 mps 714 mmHg 75%

    Day after tomorrow, 21 January, Sunday

    Time Temperature Precipitation Wind Pressure Humidity
    00:00 +7°C° 0 mm 2 mps 714 mmHg 77%
    01:00 +7°C° 0 mm 2 mps 714 mmHg 79%
    02:00 +8°C° 0 mm 1 mps 714 mmHg 81%
    03:00 +8°C° 0 mm 1 mps 714 mmHg 82%
    04:00 +7°C° 0 mm 1 mps 714 mmHg 84%
    05:00 +7°C° 0 mm 1 mps 714 mmHg 86%
    06:00 +7°C° 0 mm 1 mps 714 mmHg 87%
    07:00 +8°C° 0 mm 1 mps 715 mmHg 85%
    08:00 +8°C° 0 mm 1 mps 715 mmHg 83%
    09:00 +9°C° 0 mm 1 mps 716 mmHg 81%
    10:00 +11°C° 0 mm 1 mps 715 mmHg 75%
    11:00 +12°C° 0 mm 1 mps 715 mmHg 69%
    12:00 +14°C° 0 mm 1 mps 715 mmHg 63%
    13:00 +14°C° 0 mm 1 mps 715 mmHg 61%
    14:00 +15°C° 0 mm 1 mps 714 mmHg 58%
    15:00 +15°C° 0 mm 2 mps 714 mmHg 56%
    16:00 +14°C° 0 mm 2 mps 714 mmHg 63%
    17:00 +12°C° 0 mm 1 mps 714 mmHg 70%
    18:00 +11°C° 0 mm 1 mps 714 mmHg 76%
    19:00 +10°C° 0 mm 1 mps 714 mmHg 78%
    20:00 +10°C° 0 mm 1 mps 715 mmHg 80%
    21:00 +9°C° 0 mm 1 mps 715 mmHg 81%
    22:00 +9°C° 0 mm 1 mps 715 mmHg 82%
    23:00 +8°C° 0 mm 1 mps 715 mmHg 82%

    22 January, Monday

    Time Temperature Precipitation Wind Pressure Humidity
    00:00 +8°C° 0 mm 1 mps 715 mmHg 82%
    01:00 +8°C° 0 mm 1 mps 715 mmHg 83%
    02:00 +7°C° 0 mm 1 mps 714 mmHg 83%
    03:00 +7°C° 0 mm 1 mps 714 mmHg 83%
    04:00 +7°C° 0 mm 1 mps 714 mmHg 84%
    05:00 +7°C° 0 mm 1 mps 714 mmHg 84%
    06:00 +6°C° 0 mm 1 mps 714 mmHg 84%
    07:00 +7°C° 0 mm 1 mps 714 mmHg 82%
    08:00 +8°C° 0 mm 1 mps 714 mmHg 79%
    09:00 +9°C° 0 mm 1 mps 715 mmHg 77%
    10:00 +10°C° 0 mm 1 mps 715 mmHg 70%
    11:00 +12°C° 0 mm 1 mps 715 mmHg 63%
    12:00 +14°C° 0 mm 1 mps 715 mmHg 56%
    13:00 +14°C° 0 mm 1 mps 714 mmHg 53%
    14:00 +15°C° 0 mm 1 mps 714 mmHg 51%
    15:00 +16°C° 0 mm 1 mps 714 mmHg 48%
    16:00 +14°C° 0 mm 1 mps 714 mmHg 55%
    17:00 +12°C° 0 mm 1 mps 714 mmHg 62%
    18:00 +10°C° 0 mm 1 mps 714 mmHg 68%
    19:00 +10°C° 0 mm 1 mps 714 mmHg 70%
    20:00 +9°C° 0 mm 1 mps 714 mmHg 72%
    21:00 +9°C° 0 mm 1 mps 715 mmHg 74%
    22:00 +8°C° 0 mm 1 mps 715 mmHg 74%
    23:00 +8°C° 0 mm 1 mps 715 mmHg 74%

    23 January, Tuesday

    Time Temperature Precipitation Wind Pressure Humidity
    00:00 +8°C° 0 mm 1 mps 714 mmHg 74%
    01:00 +7°C° 0 mm 1 mps 714 mmHg 74%
    02:00 +6°C° 0 mm 2 mps 714 mmHg 74%
    03:00 +6°C° 0 mm 2 mps 714 mmHg 74%
    04:00 +6°C° 0 mm 2 mps 714 mmHg 74%
    05:00 +6°C° 0 mm 1 mps 714 mmHg 74%
    06:00 +6°C° 0 mm 1 mps 714 mmHg 75%
    07:00 +7°C° 0 mm 1 mps 714 mmHg 71%
    08:00 +8°C° 0 mm 1 mps 715 mmHg 68%
    09:00 +9°C° 0 mm 1 mps 715 mmHg 64%
    10:00 +11°C° 0 mm 1 mps 715 mmHg 57%
    11:00 +12°C° 0 mm 1 mps 715 mmHg 50%
    12:00 +14°C° 0 mm 1 mps 715 mmHg 44%
    13:00 +15°C° 0 mm 1 mps 714 mmHg 42%
    14:00 +15°C° 0 mm 1 mps 714 mmHg 40%
    15:00 +16°C° 0 mm 1 mps 713 mmHg 38%
    16:00 +14°C° 0 mm 1 mps 713 mmHg 45%
    17:00 +11°C° 0 mm 0 mps 713 mmHg 52%
    18:00 +9°C° 0 mm 0 mps 713 mmHg 59%
    19:00 +9°C° 0 mm 0 mps 713 mmHg 60%
    20:00 +8°C° 0 mm 0 mps 713 mmHg 61%
    21:00 +8°C° 0 mm 0 mps 713 mmHg 62%
    22:00 +7°C° 0 mm 0 mps 713 mmHg 63%
    23:00 +7°C° 0 mm 0 mps 713 mmHg 64%

    24 January, Wednesday

    Time Temperature Precipitation Wind Pressure Humidity
    00:00 +6°C° 0 mm 0 mps 713 mmHg 65%
    01:00 +6°C° 0 mm 0 mps 712 mmHg 65%
    02:00 +7°C° 0 mm 1 mps 712 mmHg 66%
    03:00 +6°C° 0 mm 1 mps 712 mmHg 66%
    04:00 +6°C° 0 mm 1 mps 712 mmHg 66%
    05:00 +6°C° 0 mm 1 mps 712 mmHg 67%
    06:00 +6°C° 0 mm 1 mps 712 mmHg 67%
    07:00 +7°C° 0 mm 1 mps 712 mmHg 64%
    08:00 +8°C° 0 mm 1 mps 712 mmHg 61%
    09:00 +8°C° 0 mm 1 mps 713 mmHg 58%
    10:00 +10°C° 0 mm 1 mps 712 mmHg 53%
    11:00 +12°C° 0 mm 1 mps 712 mmHg 47%
    12:00 +14°C° 0 mm 1 mps 712 mmHg 41%
    13:00 +14°C° 0 mm 1 mps 711 mmHg 40%
    14:00 +15°C° 0 mm 1 mps 711 mmHg 38%
    15:00 +15°C° 0 mm 2 mps 711 mmHg 37%
    16:00 +14°C° 0 mm 1 mps 710 mmHg 42%
    17:00 +12°C° 0 mm 1 mps 710 mmHg 47%
    18:00 +10°C° 0 mm 1 mps 710 mmHg 53%
    19:00 +10°C° 0 mm 1 mps 710 mmHg 54%
    20:00 +9°C° 0 mm 1 mps 710 mmHg 55%
    21:00 +9°C° 0 mm 1 mps 710 mmHg 55%
    22:00 +8°C° 0 mm 1 mps 710 mmHg 57%
    23:00 +8°C° 0 mm 1 mps 710 mmHg 59%
    Show more